IRIDIUM 106 1 41917U 17003A 25350.23220189 .00000011 00000+0 -32209-5 0 9998 2 41917 86.3991 164.9958 0002262 98.7441 261.4012 14.34217714466980 IRIDIUM 103 1 41918U 17003B 25350.21951484 .00000146 00000+0 45229-4 0 9999 2 41918 86.3986 164.9015 0001648 99.5794 260.5588 14.34214443467004 IRIDIUM 109 1 41919U 17003C 25350.22586517 .00000107 00000+0 31207-4 0 9990 2 41919 86.3988 164.9553 0001886 93.0754 267.0658 14.34220543466976 IRIDIUM 102 1 41920U 17003D 25350.19414382 .00000003 00000+0 -58906-5 0 9990 2 41920 86.3991 164.8961 0001887 88.0671 272.0741 14.34217283467053 IRIDIUM 105 1 41921U 17003E 25350.23464829 .00000339 00000+0 11402-3 0 9996 2 41921 86.3979 133.3715 0001914 95.5581 264.5834 14.34220042468914 IRIDIUM 104 1 41922U 17003F 25350.20682851 .00000082 00000+0 22097-4 0 9999 2 41922 86.3986 164.9305 0001647 87.9919 272.1465 14.34218439467046 IRIDIUM 114 1 41923U 17003G 25350.21316398 .00000034 00000+0 50078-5 0 9999 2 41923 86.3985 164.9116 0001810 91.5564 268.5839 14.34216685467028 IRIDIUM 108 1 41924U 17003H 25350.24146543 .00000265 00000+0 87494-4 0 9993 2 41924 86.3975 133.2585 0002117 89.6041 270.5397 14.34216846468882 IRIDIUM 112 1 41925U 17003J 25350.20048672 .00000014 00000+0 -18869-5 0 9998 2 41925 86.3989 164.7678 0001742 87.1990 272.9405 14.34217378467043 IRIDIUM 111 1 41926U 17003K 25350.04826650 .00000043 00000+0 83972-5 0 9999 2 41926 86.3986 164.8978 0001959 93.8362 266.3058 14.34217793467000 IRIDIUM 113 1 42803U 17039A 25350.23753697 .00000003 00000+0 -59994-5 0 9998 2 42803 86.3967 38.6331 0001871 94.8183 265.3226 14.34217558444965 IRIDIUM 123 1 42804U 17039B 25350.27901671 .00000201 00000+0 64786-4 0 9993 2 42804 86.3966 70.1000 0002115 105.0490 255.0940 14.34216818443738 IRIDIUM 120 1 42805U 17039C 25350.37073298 .00000270 00000+0 89319-4 0 9995 2 42805 86.3962 38.3839 0002510 96.1354 264.0128 14.34217820444978 IRIDIUM 115 1 42806U 17039D 25350.22382366 .00000379 00000+0 10676-3 0 9998 2 42806 86.4498 38.5490 0002523 105.1953 254.9527 14.43276584447874 IRIDIUM 118 1 42807U 17039E 25350.31072643 -.00000017 00000+0 -13112-4 0 9993 2 42807 86.3965 70.0856 0001824 96.1158 264.0246 14.34215078443731 IRIDIUM 117 1 42808U 17039F 25350.32975695 .00000291 00000+0 96793-4 0 9992 2 42808 86.3966 70.0370 0002057 102.2074 257.9352 14.34217745443764 IRIDIUM 126 1 42809U 17039G 25350.28535824 .00000206 00000+0 66485-4 0 9995 2 42809 86.3967 70.1038 0001932 100.0737 260.0677 14.34217902443738 IRIDIUM 124 1 42810U 17039H 25350.08830863 .00000378 00000+0 10634-3 0 9990 2 42810 86.4491 6.9073 0002329 97.1053 263.0413 14.43279591448702 IRIDIUM 128 1 42811U 17039J 25350.34586621 .00000027 00000+0 24229-5 0 9998 2 42811 86.3964 101.6126 0002394 98.3627 261.7840 14.34217203443774 IRIDIUM 121 1 42812U 17039K 25350.30438726 -.00000045 00000+0 -23027-4 0 9993 2 42812 86.3960 70.1221 0002109 95.0112 265.1325 14.34217152443616 IRIDIUM 133 1 42955U 17061A 25350.30781902 .00000298 00000+0 99291-4 0 9997 2 42955 86.3969 101.7418 0002112 97.7086 262.4349 14.34219176428566 IRIDIUM 100 1 42956U 17061B 25350.30146543 -.00000007 00000+0 -94959-5 0 9991 2 42956 86.3968 101.6674 0001969 99.2271 260.9148 14.34215883428562 IRIDIUM 122 1 42957U 17061C 25350.33952181 .00000386 00000+0 13081-3 0 9991 2 42957 86.3968 101.6512 0001952 98.1378 262.0040 14.34215533428579 IRIDIUM 129 1 42958U 17061D 25350.29512387 .00000124 00000+0 37140-4 0 9990 2 42958 86.3968 101.7347 0001771 88.7102 271.4297 14.34217585428584 IRIDIUM 119 1 42959U 17061E 25350.33318056 .00000274 00000+0 90734-4 0 9997 2 42959 86.3969 101.7138 0001802 96.6103 263.5298 14.34216613428605 IRIDIUM 107 1 42960U 17061F 25350.35220812 .00000166 00000+0 52362-4 0 9998 2 42960 86.3975 101.7260 0002070 107.8076 252.3346 14.34217273428616 IRIDIUM 132 1 42961U 17061G 25350.35854845 .00000053 00000+0 11997-4 0 9992 2 42961 86.3970 101.7042 0002035 100.1356 260.0069 14.34215739428611 IRIDIUM 136 1 42962U 17061H 25350.32049471 .00000107 00000+0 31089-4 0 9995 2 42962 86.3969 101.7258 0001905 98.5072 261.6340 14.34217013428626 IRIDIUM 139 1 42963U 17061J 25350.32683798 .00000123 00000+0 36962-4 0 9995 2 42963 86.3972 101.7822 0002085 100.1199 260.0232 14.34216714428639 IRIDIUM 125 1 42964U 17061K 25350.31413149 .00000105 00000+0 30294-4 0 9998 2 42964 86.3973 101.8453 0001700 110.9465 249.1913 14.34212698428642 IRIDIUM 135 1 43070U 17083A 25350.21850466 .00000232 00000+0 75665-4 0 9999 2 43070 86.3966 38.4899 0002138 93.0978 267.0462 14.34214929417924 IRIDIUM 138 1 43071U 17083B 25350.17411054 -.00000003 00000+0 -80251-5 0 9997 2 43071 86.3974 38.1754 0001671 93.9945 266.1442 14.34217489417905 IRIDIUM 116 1 43072U 17083C 25350.21216749 -.00000070 00000+0 -32023-4 0 9994 2 43072 86.3957 38.4803 0002419 96.3273 263.8198 14.34216425417942 IRIDIUM 130 1 43073U 17083D 25350.18045681 .00000238 00000+0 78011-4 0 9997 2 43073 86.3974 38.7515 0002468 100.4102 259.7372 14.34219245417881 IRIDIUM 151 1 43074U 17083E 25350.15508404 -.00000017 00000+0 -13217-4 0 9996 2 43074 86.3957 38.5580 0002142 94.6047 265.5393 14.34217316417902 IRIDIUM 134 1 43075U 17083F 25350.19313899 .00000260 00000+0 85862-4 0 9996 2 43075 86.3969 38.5478 0002253 99.1622 260.9829 14.34214361417870 IRIDIUM 137 1 43076U 17083G 25350.20582568 .00000014 00000+0 -21364-5 0 9996 2 43076 86.3965 38.6314 0002533 88.0175 272.1311 14.34217317417941 IRIDIUM 141 1 43077U 17083H 25350.19948210 .00000025 00000+0 19480-5 0 9992 2 43077 86.3967 38.4755 0002045 97.1426 263.0003 14.34217030417948 IRIDIUM 153 1 43078U 17083J 25350.29119671 -.00000065 00000+0 -30136-4 0 9991 2 43078 86.3964 6.9273 0001745 97.3614 262.7780 14.34217518419062 IRIDIUM 131 1 43079U 17083K 25350.18679678 -.00000016 00000+0 -12840-4 0 9996 2 43079 86.3965 38.6542 0002032 93.8704 266.2724 14.34217370417876 IRIDIUM 144 1 43249U 18030A 25350.08823490 -.00000031 00000+0 -18014-4 0 9996 2 43249 86.3963 6.9455 0002250 94.8786 265.2667 14.34217353403890 IRIDIUM 149 1 43250U 18030B 25350.30388294 .00000167 00000+0 52655-4 0 9998 2 43250 86.3967 6.8245 0002216 92.6753 267.4696 14.34217753403940 IRIDIUM 157 1 43251U 18030C 25350.32291156 .00000277 00000+0 91947-4 0 9990 2 43251 86.3970 6.8658 0002206 87.8857 272.2592 14.34216480403926 IRIDIUM 140 1 43252U 18030D 25350.13263272 .00000063 00000+0 15315-4 0 9996 2 43252 86.3967 6.9582 0002273 95.2180 264.9276 14.34217350403953 IRIDIUM 145 1 43253U 18030E 25350.11994443 .00000190 00000+0 60737-4 0 9995 2 43253 86.3968 6.9361 0002549 94.8481 265.3006 14.34215296403880 IRIDIUM 146 1 43254U 18030F 25350.10091772 .00000379 00000+0 12835-3 0 9992 2 43254 86.3968 6.9570 0002388 92.8267 267.3202 14.34213015403892 IRIDIUM 148 1 43255U 18030G 25350.34828122 .00000039 00000+0 70158-5 0 9993 2 43255 86.3969 6.8938 0002259 89.2539 270.8915 14.34216696403966 IRIDIUM 142 1 43256U 18030H 25350.10726353 .00000059 00000+0 13909-4 0 9993 2 43256 86.3966 6.8904 0002576 94.8827 265.2663 14.34217390403893 IRIDIUM 150 1 43257U 18030J 25350.14531402 .00000258 00000+0 85208-4 0 9999 2 43257 86.3969 6.9845 0002336 94.3989 265.7474 14.34214987403928 IRIDIUM 143 1 43258U 18030K 25350.12628896 .00000305 00000+0 10169-3 0 9998 2 43258 86.3972 7.0780 0002479 94.6241 265.5238 14.34215782403857 IRIDIUM 161 1 43478U 18047C 25350.20490965 .00000134 00000+0 33907-4 0 9999 2 43478 86.4506 164.9332 0001866 86.4737 273.6677 14.43280184398745 IRIDIUM 152 1 43479U 18047D 25350.23854361 -.00000053 00000+0 -25885-4 0 9995 2 43479 86.3987 164.7798 0001715 90.6684 269.4709 14.34217209396265 IRIDIUM 147 1 43480U 18047E 25350.24488525 .00000008 00000+0 -41819-5 0 9998 2 43480 86.3988 164.7792 0001904 86.8430 273.2984 14.34217325396265 IRIDIUM 110 1 43481U 18047F 25350.32099257 .00000083 00000+0 22743-4 0 9994 2 43481 86.3987 164.8343 0001581 80.8532 279.2843 14.34218204396263 IRIDIUM 162 1 43482U 18047G 25349.99061529 .00000152 00000+0 39255-4 0 9990 2 43482 86.4505 164.9161 0001827 98.4105 261.7303 14.43278442398702 IRIDIUM 160 1 43569U 18061A 25350.33660348 .00000302 00000+0 10087-3 0 9994 2 43569 86.3976 133.2493 0001889 87.6202 272.5210 14.34216404387167 IRIDIUM 166 1 43570U 18061B 25350.36197399 .00000200 00000+0 64206-4 0 9990 2 43570 86.3977 133.1917 0002144 91.8725 268.2717 14.34216967387193 IRIDIUM 158 1 43571U 18061C 25350.33025827 .00000222 00000+0 72146-4 0 9990 2 43571 86.3976 133.2150 0001851 98.4807 261.6598 14.34215218387159 IRIDIUM 165 1 43572U 18061D 25350.35563058 .00000004 00000+0 -56455-5 0 9991 2 43572 86.3980 133.2472 0001960 91.4767 268.6653 14.34216667387182 IRIDIUM 155 1 43573U 18061E 25350.31757574 -.00000028 00000+0 -16975-4 0 9995 2 43573 86.3976 133.1413 0001965 99.2775 260.8643 14.34216991387141 IRIDIUM 154 1 43574U 18061F 25350.29854804 .00000156 00000+0 48770-4 0 9995 2 43574 86.3979 133.2736 0002046 92.2454 267.8976 14.34216576387192 IRIDIUM 163 1 43575U 18061G 25350.34928742 .00000137 00000+0 41821-4 0 9994 2 43575 86.3976 133.1736 0001841 94.7152 265.4254 14.34216288387174 IRIDIUM 156 1 43576U 18061H 25350.32391631 .00000172 00000+0 54271-4 0 9996 2 43576 86.3975 133.1912 0002105 99.4282 260.7152 14.34215482387169 IRIDIUM 164 1 43577U 18061J 25350.30488697 -.00000489 00000+0 -18162-3 0 9995 2 43577 86.3986 133.2366 0002063 88.8563 271.2870 14.34213063387205 IRIDIUM 159 1 43578U 18061K 25350.34294583 .00000279 00000+0 92716-4 0 9992 2 43578 86.3978 133.1612 0001970 90.7377 269.4045 14.34216669387175 IRIDIUM 180 1 43922U 19002A 25350.27267369 .00000048 00000+0 10227-4 0 9996 2 43922 86.3965 70.0645 0001956 94.5539 265.5881 14.34217280362779 IRIDIUM 176 1 43923U 19002B 25350.25790745 .00001015 00000+0 15702-3 0 9991 2 43923 86.6087 70.0407 0002320 95.5563 264.5919 14.72251612372331 IRIDIUM 168 1 43924U 19002C 25350.26632316 .00000290 00000+0 96404-4 0 9995 2 43924 86.3965 70.1393 0002062 98.1775 261.9655 14.34214669362758 IRIDIUM 173 1 43925U 19002D 25350.32340979 .00000279 00000+0 92515-4 0 9990 2 43925 86.3964 70.0117 0002028 101.8504 258.2919 14.34219117362749 IRIDIUM 169 1 43926U 19002E 25350.32057359 .00000380 00000+0 11779-3 0 9993 2 43926 86.4223 101.6644 0002170 125.8878 234.2522 14.38607906363930 IRIDIUM 172 1 43927U 19002F 25350.31706214 .00000268 00000+0 88656-4 0 9998 2 43927 86.3963 70.0216 0001980 94.1478 265.9944 14.34221219362750 IRIDIUM 175 1 43928U 19002G 25350.11724153 .00000873 00000+0 13448-3 0 9997 2 43928 86.1500 12.3140 0003225 88.8348 271.3238 14.72241328372305 IRIDIUM 171 1 43929U 19002H 25350.29804552 .00000222 00000+0 72039-4 0 9999 2 43929 86.3976 70.3160 0002379 98.7718 261.3747 14.34216193362742 IRIDIUM 170 1 43930U 19002J 25350.26408492 .00001052 00000+0 16291-3 0 9990 2 43930 86.6086 70.0417 0002323 90.6557 269.4927 14.72246415372340 IRIDIUM 167 1 43931U 19002K 25350.29170278 .00000139 00000+0 42630-4 0 9994 2 43931 86.3966 70.0532 0002491 104.6219 255.5253 14.34217162362746 IRIDIUM 181 1 56726U 23068S 25350.35418580 .00000406 00000+0 11474-3 0 9993 2 56726 86.4514 133.2162 0002378 84.2845 275.8627 14.43309464136066 IRIDIUM 177 1 56727U 23068T 25350.25744313 .00001321 00000+0 17040-3 0 9991 2 56727 86.1964 55.6593 0002258 85.1747 274.9731 14.80216310139300 IRIDIUM 174 1 56728U 23068U 25350.25170325 .00001053 00000+0 16311-3 0 9990 2 56728 86.6094 70.1761 0002193 88.4780 271.6688 14.72257558139103 IRIDIUM 178 1 56729U 23068V 25350.31411182 .00001466 00000+0 18950-3 0 9996 2 56729 86.6539 101.8057 0002480 96.5272 263.6232 14.80245244139310 IRIDIUM 179 1 56730U 23068W 25350.30876600 .00001410 00000+0 18215-3 0 9990 2 56730 86.6781 110.2417 0002404 88.9377 271.2120 14.80233234139319